Powrót do katalogu

ONEWEB-0634

AktywnyŁącznośćPO
NORAD 56075·PAYLOAD·🇬🇧 United Kingdom

Wystrzelony Mar 26, 2023 z Satish Dhawan Space Centre

Loading…

Następne Przeloty (najbliższe 24 godziny)

TLE

ŚwieżeSource: CelesTrak SupGP

Epoka: Sep 14, 2026, 21:38 UTC

1 56075C 23043AF  26257.90153194  .00001600  00000+0  42541-2 0  2570
2 56075  87.8975 241.3392 0001765  91.5229 292.2266 13.15543989    18

Śledź ONEWEB-0634 w czasie rzeczywistym z AllMySat

Download on the App Store